User: anonymous   Login
Location: Unspecified
(0.0000°N, 0.0000°E)
Time: 01:50:28
(UTC+00:00)
Language:

Kosmos-1168 - Orbit

View from above orbital plane
View from above orbital plane
View from above satellite
View from above satellite

Ground track
Ground track

The orbit data is extracted from the following two-line orbital elements,

1 11735U 80022A   18016.57614229  .00000045  00000-0  31660-4 0  9990
2 11735  82.9452  30.2977 0034258 297.5573 178.8215 13.74957073898000
Epoch (UTC): 16 January 2018 13:49:38
Eccentricity: 0.0034258
inclination: 82.9452°
perigee height: 956 km
apogee height: 1007 km
right ascension of ascending node: 30.2977°
argument of perigee: 297.5573°
revolutions per day: 13.74957073
mean anomaly at epoch: 178.8215°
orbit number at epoch: 89800

The dashed part of the orbit path shows where the satellite is in the earth's shadow,  

DLR